| time (UTC) | temp F | wind direction | speed knots | gust knots | rain 1hr in | rain 24hr in | rain mn in | humidity % | barometer mb |
| 20260902093008 | 60 | 121 | 0.9 | 6.1 | 0.00 | 0.00 | 0.00 | 87 | 1009.4 |
| 20260902092504 | 60 | 97 | 1.7 | 3.5 | 0.00 | 0.00 | 0.00 | 87 | 1009.4 |
| 20260902092003 | 60 | 80 | 0.9 | 3.5 | 0.00 | 0.00 | 0.00 | 87 | 1009.6 |
| 20260902091504 | 60 | 77 | 1.7 | 5.2 | 0.00 | 0.00 | 0.00 | 87 | 1009.6 |
| 20260902091003 | 60 | 53 | 0.9 | 5.2 | 0.00 | 0.00 | 0.00 | 87 | 1009.7 |
| 20260902090503 | 60 | 121 | 1.7 | 3.5 | 0.00 | 0.00 | 0.00 | 86 | 1009.7 |
| 20260902090009 | 60 | 84 | 1.7 | 2.6 | 0.00 | 0.00 | 0.00 | 86 | 1009.7 |
| 20260902085502 | 60 | 74 | 0.9 | 2.6 | 0.00 | 0.00 | 0.00 | 86 | 1009.7 |
| 20260902085002 | 60 | 71 | 0.9 | 2.6 | 0.00 | 0.00 | 0.00 | 86 | 1009.8 |
| 20260902084510 | 60 | 63 | 0.0 | 2.6 | 0.00 | 0.00 | 0.00 | 86 | 1009.8 |
| 20260902084002 | 60 | 55 | 0.0 | 2.6 | 0.00 | 0.00 | 0.00 | 86 | 1010.0 |
| 20260902083503 | 60 | 13 | 0.9 | 2.6 | 0.00 | 0.00 | 0.00 | 86 | 1010.0 |
| 20260902083006 | 60 | 22 | 0.9 | 2.6 | 0.00 | 0.00 | 0.00 | 86 | 1010.1 |
| 20260902082503 | 60 | 58 | 0.0 | 2.6 | 0.00 | 0.00 | 0.00 | 86 | 1010.0 |
| 20260902082005 | 60 | 51 | 0.9 | 2.6 | 0.00 | 0.00 | 0.00 | 86 | 1010.0 |
| 20260902081509 | 60 | 51 | 0.9 | 2.6 | 0.00 | 0.00 | 0.00 | 86 | 1010.0 |
| 20260902081010 | 60 | 51 | 0.0 | 3.5 | 0.00 | 0.00 | 0.00 | 86 | 1010.1 |
| 20260902080504 | 60 | 87 | 0.9 | 3.5 | 0.00 | 0.00 | 0.00 | 86 | 1010.1 |
| 20260902080007 | 60 | 75 | 0.9 | 2.6 | 0.00 | 0.00 | 0.00 | 86 | 1010.1 |
| 20260902075503 | 60 | 85 | 0.9 | 6.1 | 0.00 | 0.00 | 0.00 | 86 | 1010.1 |
| 20260902075004 | 60 | 58 | 0.9 | 6.1 | 0.00 | 0.00 | 0.00 | 86 | 1010.2 |
| 20260902074509 | 60 | 63 | 1.7 | 6.1 | 0.00 | 0.00 | 0.00 | 87 | 1010.3 |
| 20260902074005 | 60 | 129 | 0.9 | 5.2 | 0.00 | 0.00 | 0.00 | 86 | 1010.3 |
| 20260902073503 | 60 | 76 | 0.9 | 7.8 | 0.00 | 0.00 | 0.00 | 87 | 1010.2 |
| 20260902073008 | 60 | 67 | 0.9 | 7.8 | 0.00 | 0.00 | 0.00 | 87 | 1010.2 |
| 20260902072503 | 60 | 81 | 0.9 | 4.3 | 0.00 | 0.00 | 0.00 | 87 | 1010.3 |
| 20260902072003 | 60 | 138 | 0.0 | 5.2 | 0.00 | 0.00 | 0.00 | 87 | 1010.3 |
| 20260902071509 | 60 | 76 | 2.6 | 8.7 | 0.00 | 0.00 | 0.00 | 87 | 1010.4 |
| 20260902071003 | 60 | 117 | 0.9 | 8.7 | 0.00 | 0.00 | 0.00 | 87 | 1010.4 |
| 20260902070504 | 60 | 90 | 1.7 | 6.1 | 0.00 | 0.00 | 0.00 | 87 | 1010.4 |
| 20260902070011 | 60 | 88 | 1.7 | 6.1 | 0.00 | 0.00 | 0.00 | 87 | 1010.4 |
| 20260902065504 | 60 | 98 | 0.9 | 3.5 | 0.00 | 0.00 | 0.00 | 87 | 1010.4 |
| 20260902065004 | 60 | 130 | 1.7 | 5.2 | 0.00 | 0.00 | 0.00 | 87 | 1010.4 |
| 20260902064508 | 60 | 94 | 1.7 | 5.2 | 0.00 | 0.00 | 0.00 | 87 | 1010.4 |
| 20260902064003 | 60 | 88 | 0.0 | 4.3 | 0.00 | 0.00 | 0.00 | 87 | 1010.4 |
| 20260902063503 | 60 | 96 | 1.7 | 4.3 | 0.00 | 0.00 | 0.00 | 86 | 1010.4 |
| 20260902063016 | 60 | 116 | 1.7 | 3.5 | 0.00 | 0.00 | 0.00 | 86 | 1010.3 |
| 20260902062506 | 60 | 87 | 0.0 | 3.5 | 0.00 | 0.00 | 0.00 | 86 | 1010.4 |
| 20260902062004 | 60 | 71 | 0.0 | 3.5 | 0.00 | 0.00 | 0.00 | 86 | 1010.3 |
| 20260902061532 | 60 | 97 | 0.0 | 4.3 | 0.00 | 0.00 | 0.00 | 86 | 1010.3 |
| 20260902061006 | 60 | 143 | 1.7 | 4.3 | 0.00 | 0.00 | 0.00 | 86 | 1010.3 |
| 20260902060503 | 60 | 98 | 0.9 | 5.2 | 0.00 | 0.00 | 0.00 | 86 | 1010.4 |
| 20260902060017 | 60 | 107 | 0.9 | 5.2 | 0.00 | 0.00 | 0.00 | 86 | 1010.4 |
| 20260902055508 | 60 | 109 | 0.9 | 6.1 | 0.00 | 0.00 | 0.00 | 85 | 1010.5 |
| 20260902055004 | 60 | 100 | 0.9 | 6.1 | 0.00 | 0.00 | 0.00 | 85 | 1010.4 |
| 20260902054530 | 60 | 128 | 1.7 | 4.3 | 0.00 | 0.00 | 0.00 | 85 | 1010.5 |
| 20260902054009 | 61 | 79 | 0.9 | 6.1 | 0.00 | 0.00 | 0.00 | 85 | 1010.5 |
| 20260902053507 | 61 | 122 | 2.6 | 7.0 | 0.00 | 0.00 | 0.00 | 85 | 1010.5 |
| 20260902053005 | 61 | 97 | 1.7 | 7.8 | 0.00 | 0.00 | 0.00 | 85 | 1010.6 |
| 20260902052506 | 61 | 77 | 0.9 | 7.8 | 0.00 | 0.00 | 0.00 | 84 | 1010.7 |
| 20260902052003 | 61 | 72 | 1.7 | 5.2 | 0.00 | 0.00 | 0.00 | 84 | 1010.7 |
| 20260902051507 | 62 | 130 | 1.7 | 7.8 | 0.00 | 0.00 | 0.00 | 83 | 1010.7 |
| 20260902051004 | 62 | 92 | 0.9 | 7.8 | 0.00 | 0.00 | 0.00 | 83 | 1010.7 |
| 20260902050504 | 62 | 83 | 1.7 | 7.0 | 0.00 | 0.00 | 0.00 | 82 | 1010.7 |
| 20260902050012 | 63 | 77 | 1.7 | 7.0 | 0.00 | 0.00 | 0.00 | 81 | 1010.7 |
| 20260902045507 | 63 | 71 | 2.6 | 7.0 | 0.00 | 0.00 | 0.00 | 80 | 1010.7 |
| 20260902045007 | 63 | 100 | 1.7 | 7.0 | 0.00 | 0.00 | 0.00 | 79 | 1010.7 |
| 20260902044514 | 63 | 126 | 0.9 | 7.0 | 0.00 | 0.00 | 0.00 | 78 | 1010.7 |
| 20260902044008 | 63 | 120 | 0.9 | 7.8 | 0.00 | 0.00 | 0.00 | 76 | 1010.7 |
| 20260902043508 | 63 | 122 | 2.6 | 7.8 | 0.00 | 0.00 | 0.00 | 76 | 1010.7 |
| 20260902043016 | 63 | 136 | 1.7 | 6.1 | 0.00 | 0.00 | 0.00 | 78 | 1010.7 |
| 20260902042511 | 63 | 115 | 1.7 | 7.8 | 0.00 | 0.00 | 0.00 | 78 | 1010.7 |
| 20260902042007 | 63 | 135 | 1.7 | 7.8 | 0.00 | 0.00 | 0.00 | 78 | 1010.6 |
| 20260902041510 | 63 | 66 | 1.7 | 6.1 | 0.00 | 0.00 | 0.00 | 77 | 1010.6 |
| 20260902041004 | 63 | 113 | 1.7 | 6.1 | 0.00 | 0.00 | 0.00 | 77 | 1010.6 |
| 20260902040510 | 63 | 109 | 1.7 | 4.3 | 0.00 | 0.00 | 0.00 | 77 | 1010.5 |
| 20260902040011 | 63 | 105 | 0.9 | 4.3 | 0.00 | 0.00 | 0.00 | 77 | 1010.6 |
| 20260902035506 | 64 | 111 | 0.9 | 4.3 | 0.00 | 0.00 | 0.00 | 77 | 1010.6 |
| 20260902035006 | 64 | 76 | 0.0 | 7.0 | 0.00 | 0.00 | 0.00 | 77 | 1010.5 |
| 20260902034522 | 64 | 137 | 2.6 | 7.0 | 0.00 | 0.00 | 0.00 | 76 | 1010.5 |
| 20260902034010 | 64 | 55 | 1.7 | 7.0 | 0.00 | 0.00 | 0.00 | 77 | 1010.4 |
| 20260902033509 | 64 | 132 | 1.7 | 7.0 | 0.00 | 0.00 | 0.00 | 76 | 1010.4 |
| 20260902033019 | 64 | 82 | 1.7 | 6.1 | 0.00 | 0.00 | 0.00 | 76 | 1010.4 |
| 20260902032508 | 64 | 86 | 1.7 | 6.1 | 0.00 | 0.00 | 0.00 | 76 | 1010.3 |
| 20260902032012 | 64 | 82 | 1.7 | 6.1 | 0.00 | 0.00 | 0.00 | 75 | 1010.3 |
| 20260902031518 | 64 | 78 | 1.7 | 7.8 | 0.00 | 0.00 | 0.00 | 75 | 1010.2 |
| 20260902031004 | 64 | 115 | 1.7 | 7.8 | 0.00 | 0.00 | 0.00 | 75 | 1010.2 |
| 20260902030507 | 64 | 74 | 1.7 | 7.0 | 0.00 | 0.00 | 0.00 | 75 | 1010.2 |
| 20260902030010 | 65 | 104 | 0.9 | 7.0 | 0.00 | 0.00 | 0.00 | 75 | 1010.2 |
| 20260902025506 | 65 | 67 | 1.7 | 5.2 | 0.00 | 0.00 | 0.00 | 74 | 1010.1 |
| 20260902025008 | 65 | 96 | 1.7 | 5.2 | 0.00 | 0.00 | 0.00 | 74 | 1010.2 |
| 20260902024514 | 65 | 124 | 2.6 | 6.1 | 0.00 | 0.00 | 0.00 | 73 | 1010.1 |
| 20260902024007 | 65 | 82 | 2.6 | 6.1 | 0.00 | 0.00 | 0.00 | 72 | 1010.0 |
| 20260902023508 | 65 | 124 | 1.7 | 6.1 | 0.00 | 0.00 | 0.00 | 71 | 1010.1 |
| 20260902023023 | 65 | 134 | 0.9 | 6.1 | 0.00 | 0.00 | 0.00 | 71 | 1010.0 |
| 20260902022510 | 65 | 115 | 1.7 | 6.1 | 0.00 | 0.00 | 0.00 | 71 | 1010.1 |
| 20260902022008 | 66 | 63 | 1.7 | 7.8 | 0.00 | 0.00 | 0.00 | 71 | 1010.0 |
| 20260902021519 | 66 | 105 | 1.7 | 7.8 | 0.00 | 0.00 | 0.00 | 71 | 1010.0 |
| 20260902021010 | 66 | 155 | 1.7 | 6.1 | 0.00 | 0.00 | 0.00 | 71 | 1010.1 |
| 20260902020512 | 66 | 128 | 1.7 | 5.2 | 0.00 | 0.00 | 0.00 | 70 | 1010.1 |
| 20260902020024 | 66 | 146 | 0.9 | 5.2 | 0.00 | 0.00 | 0.00 | 70 | 1010.1 |
| 20260902015510 | 66 | 113 | 0.9 | 5.2 | 0.00 | 0.00 | 0.00 | 71 | 1010.1 |
| 20260902015006 | 67 | 117 | 1.7 | 5.2 | 0.00 | 0.00 | 0.00 | 71 | 1010.1 |
| 20260902014512 | 67 | 93 | 1.7 | 5.2 | 0.00 | 0.00 | 0.00 | 70 | 1010.1 |
| 20260902014006 | 67 | 109 | 0.9 | 5.2 | 0.00 | 0.00 | 0.00 | 69 | 1010.1 |
| 20260902013510 | 67 | 138 | 0.9 | 3.5 | 0.00 | 0.00 | 0.00 | 69 | 1010.1 |
| 20260902013017 | 67 | 139 | 0.9 | 5.2 | 0.00 | 0.00 | 0.00 | 68 | 1010.1 |
| 20260902012511 | 67 | 129 | 1.7 | 5.2 | 0.00 | 0.00 | 0.00 | 69 | 1010.1 |
| 20260902012010 | 67 | 112 | 0.9 | 5.2 | 0.00 | 0.00 | 0.00 | 70 | 1010.1 |
| 20260902011525 | 67 | 138 | 1.7 | 6.1 | 0.00 | 0.00 | 0.00 | 70 | 1010.1 |
| 20260902011013 | 67 | 67 | 1.7 | 6.1 | 0.00 | 0.00 | 0.00 | 70 | 1010.1 |
| 20260902010511 | 67 | 138 | 1.7 | 7.0 | 0.00 | 0.00 | 0.00 | 70 | 1010.1 |
| 20260902010032 | 67 | 119 | 1.7 | 8.7 | 0.00 | 0.00 | 0.00 | 70 | 1010.0 |
| 20260902005512 | 67 | 123 | 2.6 | 8.7 | 0.00 | 0.00 | 0.00 | 70 | 1009.9 |
| 20260902005013 | 67 | 115 | 1.7 | 7.8 | 0.00 | 0.00 | 0.00 | 69 | 1010.0 |
| 20260902004513 | 67 | 182 | 2.6 | 7.0 | 0.00 | 0.00 | 0.00 | 69 | 1010.0 |
| 20260902004007 | 67 | 70 | 0.9 | 6.1 | 0.00 | 0.00 | 0.00 | 68 | 1010.0 |
| 20260902003505 | 67 | 153 | 1.7 | 5.2 | 0.00 | 0.00 | 0.00 | 68 | 1010.1 |
| 20260902003018 | 67 | 178 | 1.7 | 6.1 | 0.00 | 0.00 | 0.00 | 68 | 1010.0 |
| 20260902002512 | 67 | 109 | 1.7 | 6.1 | 0.00 | 0.00 | 0.00 | 68 | 1010.0 |
| 20260902002010 | 67 | 142 | 1.7 | 7.0 | 0.00 | 0.00 | 0.00 | 68 | 1009.9 |
| 20260902001541 | 67 | 136 | 2.6 | 7.8 | 0.00 | 0.00 | 0.00 | 68 | 1009.9 |
| 20260902001009 | 67 | 103 | 3.5 | 7.8 | 0.00 | 0.00 | 0.00 | 67 | 1009.9 |
| 20260902000513 | 68 | 180 | 2.6 | 7.8 | 0.00 | 0.00 | 0.00 | 66 | 1009.9 |
| 20260902000037 | 68 | 115 | 2.6 | 7.8 | 0.00 | 0.00 | 0.00 | 67 | 1009.9 |
| 20260901235514 | 68 | 176 | 2.6 | 7.8 | 0.00 | 0.00 | 0.00 | 67 | 1009.9 |
| 20260901235012 | 68 | 159 | 1.7 | 6.1 | 0.00 | 0.00 | 0.00 | 68 | 1009.9 |
| 20260901234525 | 68 | 50 | 0.9 | 8.7 | 0.00 | 0.00 | 0.00 | 69 | 1009.9 |
| 20260901234014 | 68 | 92 | 3.5 | 8.7 | 0.00 | 0.00 | 0.00 | 69 | 1010.0 |
| 20260901233514 | 68 | 96 | 1.7 | 5.2 | 0.00 | 0.00 | 0.00 | 69 | 1010.0 |
| 20260901233013 | 67 | 128 | 1.7 | 4.3 | 0.00 | 0.00 | 0.00 | 70 | 1010.0 |
| 20260901232508 | 67 | 120 | 0.9 | 4.3 | 0.00 | 0.00 | 0.00 | 70 | 1010.0 |
| 20260901232010 | 67 | 118 | 1.7 | 4.3 | 0.00 | 0.00 | 0.00 | 70 | 1010.0 |
| 20260901231525 | 67 | 100 | 1.7 | 3.5 | 0.00 | 0.00 | 0.00 | 70 | 1010.1 |
| 20260901231011 | 67 | 159 | 1.7 | 7.0 | 0.00 | 0.00 | 0.00 | 69 | 1010.0 |
| 20260901230515 | 68 | 179 | 2.6 | 6.1 | 0.00 | 0.00 | 0.00 | 69 | 1010.0 |
| 20260901230028 | 68 | 130 | 0.9 | 6.1 | 0.00 | 0.00 | 0.00 | 69 | 1010.0 |
| 20260901225513 | 68 | 121 | 2.6 | 6.1 | 0.00 | 0.00 | 0.00 | 68 | 1010.0 |
| 20260901225016 | 68 | 86 | 0.9 | 6.1 | 0.00 | 0.00 | 0.00 | 68 | 1010.0 |
| 20260901224530 | 68 | 141 | 1.7 | 8.7 | 0.00 | 0.00 | 0.00 | 68 | 1010.0 |
| 20260901224015 | 68 | 133 | 3.5 | 8.7 | 0.00 | 0.00 | 0.00 | 68 | 1009.9 |
| 20260901223513 | 68 | 134 | 1.7 | 7.8 | 0.00 | 0.00 | 0.00 | 68 | 1009.9 |
| 20260901223031 | 68 | 136 | 0.9 | 10.4 | 0.00 | 0.00 | 0.00 | 68 | 1009.9 |
| 20260901222515 | 68 | 118 | 1.7 | 10.4 | 0.00 | 0.00 | 0.00 | 67 | 1009.9 |
| 20260901222008 | 68 | 158 | 3.5 | 9.6 | 0.00 | 0.00 | 0.00 | 67 | 1010.0 |
| 20260901221520 | 68 | 146 | 0.9 | 7.8 | 0.00 | 0.00 | 0.00 | 67 | 1009.9 |
| 20260901221010 | 68 | 80 | 1.7 | 7.8 | 0.00 | 0.00 | 0.00 | 67 | 1009.9 |
| 20260901220509 | 69 | 60 | 2.6 | 6.1 | 0.00 | 0.00 | 0.00 | 67 | 1009.9 |
| 20260901220036 | 69 | 136 | 2.6 | 6.1 | 0.00 | 0.00 | 0.00 | 67 | 1009.9 |
| 20260901215514 | 69 | 139 | 1.7 | 7.8 | 0.00 | 0.00 | 0.00 | 67 | 1009.9 |
| 20260901215014 | 69 | 115 | 1.7 | 7.8 | 0.00 | 0.00 | 0.00 | 68 | 1009.9 |
| 20260901214528 | 68 | 95 | 1.7 | 6.1 | 0.00 | 0.00 | 0.00 | 68 | 1009.9 |
| 20260901214015 | 69 | 129 | 0.9 | 6.1 | 0.00 | 0.00 | 0.00 | 68 | 1009.9 |
| 20260901213513 | 69 | 128 | 1.7 | 7.0 | 0.00 | 0.00 | 0.00 | 67 | 1009.9 |
| 20260901213032 | 69 | 110 | 1.7 | 7.8 | 0.00 | 0.00 | 0.00 | 67 | 1009.9 |
| 20260901212514 | 69 | 48 | 2.6 | 8.7 | 0.00 | 0.00 | 0.00 | 67 | 1009.9 |
| 20260901212015 | 69 | 90 | 1.7 | 8.7 | 0.00 | 0.00 | 0.00 | 67 | 1010.0 |
| 20260901211536 | 69 | 86 | 1.7 | 7.0 | 0.00 | 0.00 | 0.00 | 66 | 1009.9 |
| 20260901211019 | 69 | 92 | 0.9 | 7.0 | 0.00 | 0.00 | 0.00 | 66 | 1010.0 |
| 20260901210512 | 69 | 70 | 2.6 | 5.2 | 0.00 | 0.00 | 0.00 | 65 | 1010.1 |
| 20260901210022 | 69 | 104 | 1.7 | 6.1 | 0.00 | 0.00 | 0.00 | 64 | 1010.1 |
| 20260901205516 | 69 | 144 | 0.9 | 6.1 | 0.00 | 0.00 | 0.00 | 65 | 1010.2 |
| 20260901205014 | 69 | 107 | 1.7 | 7.8 | 0.00 | 0.00 | 0.00 | 66 | 1010.2 |
| 20260901204527 | 69 | 74 | 4.3 | 7.8 | 0.00 | 0.00 | 0.00 | 65 | 1010.2 |
| 20260901204014 | 69 | 119 | 1.7 | 6.1 | 0.00 | 0.00 | 0.00 | 66 | 1010.3 |
| 20260901203515 | 69 | 69 | 1.7 | 5.2 | 0.00 | 0.00 | 0.00 | 67 | 1010.3 |
| 20260901203036 | 69 | 106 | 1.7 | 5.2 | 0.00 | 0.00 | 0.00 | 66 | 1010.3 |
| 20260901202515 | 69 | 118 | 2.6 | 5.2 | 0.00 | 0.00 | 0.00 | 67 | 1010.4 |
| 20260901202004 | 68 | 146 | 1.7 | 6.1 | 0.00 | 0.00 | 0.00 | 68 | 1010.3 |
| 20260901201514 | 68 | 148 | 0.9 | 6.1 | 0.00 | 0.00 | 0.00 | 68 | 1010.5 |
| 20260901201006 | 68 | 130 | 2.6 | 6.1 | 0.00 | 0.00 | 0.00 | 67 | 1010.6 |
| 20260901200510 | 68 | 34 | 1.7 | 5.2 | 0.00 | 0.00 | 0.00 | 69 | 1010.7 |
| 20260901200023 | 68 | 140 | 2.6 | 4.3 | 0.00 | 0.00 | 0.00 | 69 | 1010.7 |
| 20260901195512 | 68 | 137 | 1.7 | 3.5 | 0.00 | 0.00 | 0.00 | 69 | 1010.8 |
| 20260901195016 | 68 | 80 | 0.9 | 3.5 | 0.00 | 0.00 | 0.00 | 69 | 1010.7 |
| 20260901194526 | 68 | 104 | 0.9 | 7.0 | 0.00 | 0.00 | 0.00 | 70 | 1010.6 |
| 20260901194015 | 68 | 98 | 1.7 | 7.0 | 0.00 | 0.00 | 0.00 | 69 | 1010.7 |
| 20260901193513 | 68 | 118 | 1.7 | 7.0 | 0.00 | 0.00 | 0.00 | 70 | 1010.7 |
| 20260901193031 | 67 | 50 | 1.7 | 7.0 | 0.00 | 0.00 | 0.00 | 70 | 1010.7 |
| 20260901192514 | 67 | 136 | 2.6 | 7.0 | 0.00 | 0.00 | 0.00 | 71 | 1010.8 |
| 20260901192016 | 66 | 160 | 0.9 | 6.1 | 0.00 | 0.00 | 0.00 | 73 | 1010.7 |
| 20260901191530 | 66 | 176 | 0.9 | 6.1 | 0.00 | 0.00 | 0.00 | 73 | 1010.8 |
| 20260901191007 | 65 | 130 | 2.6 | 6.1 | 0.00 | 0.00 | 0.00 | 74 | 1010.9 |
| 20260901190509 | 65 | 140 | 1.7 | 6.1 | 0.00 | 0.00 | 0.00 | 75 | 1010.9 |
| 20260901190023 | 64 | 178 | 1.7 | 5.2 | 0.00 | 0.00 | 0.00 | 75 | 1010.9 |
| 20260901185517 | 64 | 127 | 1.7 | 5.2 | 0.00 | 0.00 | 0.00 | 76 | 1011.0 |
| 20260901185013 | 64 | 68 | 0.9 | 8.7 | 0.00 | 0.00 | 0.00 | 76 | 1011.0 |
| 20260901184527 | 64 | 119 | 1.7 | 8.7 | 0.00 | 0.00 | 0.00 | 76 | 1011.0 |
| 20260901184014 | 64 | 128 | 0.9 | 7.0 | 0.00 | 0.00 | 0.00 | 76 | 1011.0 |
| 20260901183515 | 64 | 136 | 2.6 | 7.0 | 0.00 | 0.00 | 0.00 | 76 | 1011.0 |
| 20260901183029 | 64 | 109 | 1.7 | 6.1 | 0.00 | 0.00 | 0.00 | 77 | 1011.0 |
| 20260901182514 | 63 | 157 | 0.9 | 4.3 | 0.00 | 0.00 | 0.00 | 76 | 1010.9 |
| 20260901182014 | 64 | 119 | 0.9 | 7.0 | 0.00 | 0.00 | 0.00 | 77 | 1010.9 |
| 20260901181535 | 64 | 121 | 0.9 | 7.8 | 0.00 | 0.00 | 0.00 | 77 | 1010.9 |
| 20260901181017 | 64 | 197 | 1.7 | 7.8 | 0.00 | 0.00 | 0.00 | 76 | 1010.9 |
| 20260901180519 | 64 | 183 | 1.7 | 6.1 | 0.00 | 0.00 | 0.00 | 76 | 1010.9 |
| 20260901180034 | 65 | 122 | 1.7 | 7.8 | 0.00 | 0.00 | 0.00 | 75 | 1010.8 |
| 20260901175509 | 64 | 132 | 1.7 | 8.7 | 0.00 | 0.00 | 0.00 | 75 | 1010.7 |
| 20260901175011 | 65 | 207 | 3.5 | 8.7 | 0.00 | 0.00 | 0.00 | 75 | 1010.6 |
| 20260901174526 | 64 | 174 | 0.9 | 6.1 | 0.00 | 0.00 | 0.00 | 77 | 1010.5 |
| 20260901174011 | 64 | 165 | 1.7 | 7.8 | 0.00 | 0.00 | 0.00 | 78 | 1010.6 |
| 20260901173504 | 63 | 163 | 2.6 | 7.8 | 0.00 | 0.00 | 0.00 | 78 | 1010.5 |
| 20260901173005 | 63 | 198 | 2.6 | 7.8 | 0.00 | 0.00 | 0.00 | 79 | 1010.6 |
| 20260901172504 | 63 | 201 | 1.7 | 5.2 | 0.00 | 0.00 | 0.00 | 81 | 1010.6 |
| 20260901172004 | 62 | 173 | 1.7 | 5.2 | 0.00 | 0.00 | 0.00 | 82 | 1010.6 |
| 20260901171515 | 62 | 117 | 0.9 | 3.5 | 0.00 | 0.00 | 0.00 | 83 | 1010.6 |
| 20260901171005 | 61 | 159 | 0.9 | 2.6 | 0.00 | 0.00 | 0.00 | 83 | 1010.5 |
| 20260901170507 | 61 | 69 | 0.9 | 2.6 | 0.00 | 0.00 | 0.00 | 84 | 1010.5 |
| 20260901170046 | 61 | 50 | 0.0 | 2.6 | 0.00 | 0.00 | 0.00 | 85 | 1010.4 |
| 20260901165507 | 61 | 64 | 0.0 | 2.6 | 0.00 | 0.00 | 0.00 | 85 | 1010.5 |
| 20260901165010 | 60 | 146 | 0.9 | 3.5 | 0.00 | 0.00 | 0.00 | 85 | 1010.6 |
| 20260901164523 | 60 | 93 | 1.7 | 3.5 | 0.00 | 0.00 | 0.00 | 87 | 1010.6 |
| 20260901164011 | 59 | 22 | 0.0 | 2.6 | 0.00 | 0.00 | 0.00 | 87 | 1010.6 |
| 20260901163514 | 59 | 54 | 0.9 | 2.6 | 0.00 | 0.00 | 0.00 | 87 | 1010.6 |
| 20260901163005 | 59 | 92 | 0.0 | 2.6 | 0.00 | 0.00 | 0.00 | 87 | 1010.7 |
| 20260901162517 | 59 | 98 | 0.9 | 3.5 | 0.00 | 0.00 | 0.00 | 87 | 1010.7 |
| 20260901162002 | 59 | 66 | 1.7 | 3.5 | 0.00 | 0.00 | 0.00 | 88 | 1010.7 |
| 20260901161508 | 58 | 141 | 1.7 | 3.5 | 0.00 | 0.00 | 0.00 | 88 | 1010.8 |
| 20260901161005 | 58 | 75 | 0.0 | 3.5 | 0.00 | 0.00 | 0.00 | 89 | 1010.8 |
| 20260901160506 | 58 | 80 | 0.0 | 2.6 | 0.00 | 0.00 | 0.00 | 90 | 1010.9 |
| 20260901160013 | 58 | 61 | 0.9 | 1.7 | 0.00 | 0.00 | 0.00 | 89 | 1010.9 |
| 20260901155506 | 57 | 71 | 0.9 | 1.7 | 0.00 | 0.00 | 0.00 | 89 | 1010.9 |
| 20260901155007 | 57 | 72 | 0.0 | 1.7 | 0.00 | 0.00 | 0.00 | 90 | 1010.9 |
| 20260901154516 | 57 | 119 | 0.9 | 1.7 | 0.00 | 0.00 | 0.00 | 90 | 1010.9 |
| 20260901154014 | 57 | 123 | 0.0 | 2.6 | 0.00 | 0.00 | 0.00 | 91 | 1010.8 |
| 20260901153512 | 56 | 130 | 0.9 | 2.6 | 0.00 | 0.00 | 0.00 | 91 | 1010.9 |
| 20260901153024 | 56 | 80 | 0.0 | 2.6 | 0.00 | 0.00 | 0.00 | 92 | 1010.9 |
| 20260901152513 | 55 | 128 | 0.9 | 1.7 | 0.00 | 0.00 | 0.00 | 92 | 1011.0 |
| 20260901152016 | 55 | 119 | 0.0 | 1.7 | 0.00 | 0.00 | 0.00 | 92 | 1010.9 |
| 20260901151510 | 55 | 130 | 0.0 | 1.7 | 0.00 | 0.00 | 0.00 | 92 | 1010.9 |
| 20260901151003 | 55 | 68 | 0.0 | 1.7 | 0.00 | 0.00 | 0.00 | 92 | 1010.9 |
| 20260901150502 | 54 | 85 | 0.0 | 1.7 | 0.00 | 0.00 | 0.00 | 92 | 1010.8 |
| 20260901150009 | 54 | 107 | 0.0 | 1.7 | 0.00 | 0.00 | 0.00 | 93 | 1010.8 |
| 20260901145506 | 54 | 96 | 0.0 | 1.7 | 0.00 | 0.00 | 0.00 | 93 | 1010.7 |
| 20260901145010 | 54 | 87 | 0.0 | 1.7 | 0.00 | 0.00 | 0.00 | 93 | 1010.6 |
| 20260901144516 | 54 | 88 | 0.9 | 1.7 | 0.00 | 0.00 | 0.00 | 93 | 1010.6 |
| 20260901144008 | 54 | 68 | 0.0 | 1.7 | 0.00 | 0.00 | 0.00 | 93 | 1010.5 |
| 20260901143510 | 53 | 68 | 0.0 | 1.7 | 0.00 | 0.00 | 0.00 | 93 | 1010.4 |
| 20260901143024 | 53 | 68 | 0.0 | 1.7 | 0.00 | 0.00 | 0.00 | 93 | 1010.5 |
| 20260901142512 | 53 | 53 | 0.0 | 1.7 | 0.00 | 0.00 | 0.00 | 93 | 1010.4 |
| 20260901142010 | 53 | 69 | 0.0 | 1.7 | 0.00 | 0.00 | 0.00 | 93 | 1010.4 |
| 20260901141528 | 53 | 51 | 0.0 | 1.7 | 0.00 | 0.00 | 0.00 | 92 | 1010.5 |
| 20260901141011 | 52 | 51 | 0.0 | 1.7 | 0.00 | 0.00 | 0.00 | 92 | 1010.4 |
| 20260901140517 | 52 | 36 | 0.0 | 1.7 | 0.00 | 0.00 | 0.00 | 92 | 1010.3 |
| 20260901140011 | 52 | 35 | 0.0 | 1.7 | 0.00 | 0.00 | 0.00 | 92 | 1010.3 |
| 20260901135503 | 52 | 92 | 0.0 | 1.7 | 0.00 | 0.00 | 0.00 | 92 | 1010.2 |
| 20260901135007 | 52 | 92 | 0.0 | 1.7 | 0.00 | 0.00 | 0.00 | 92 | 1010.2 |
| 20260901134514 | 52 | 92 | 0.0 | 1.7 | 0.00 | 0.00 | 0.00 | 92 | 1010.2 |
| 20260901134009 | 52 | 92 | 0.0 | 1.7 | 0.00 | 0.00 | 0.00 | 92 | 1010.2 |
| 20260901133508 | 52 | 126 | 0.0 | 1.7 | 0.00 | 0.00 | 0.00 | 92 | 1010.1 |
| 20260901133020 | 52 | 126 | 0.0 | 1.7 | 0.00 | 0.00 | 0.00 | 92 | 1010.0 |
| 20260901132512 | 52 | 126 | 0.0 | 0.9 | 0.00 | 0.00 | 0.00 | 92 | 1010.0 |
| 20260901132012 | 52 | 126 | 0.0 | 1.7 | 0.00 | 0.00 | 0.00 | 92 | 1010.0 |
| 20260901131539 | 52 | 126 | 0.0 | 1.7 | 0.00 | 0.00 | 0.00 | 92 | 1010.0 |
| 20260901131012 | 52 | 72 | 0.0 | 1.7 | 0.00 | 0.00 | 0.00 | 92 | 1009.9 |
| 20260901130516 | 52 | 84 | 0.0 | 1.7 | 0.00 | 0.00 | 0.00 | 92 | 1009.9 |
| 20260901130029 | 52 | 68 | 0.0 | 2.6 | 0.00 | 0.00 | 0.00 | 92 | 1009.9 |
| 20260901125513 | 52 | 76 | 0.0 | 2.6 | 0.00 | 0.00 | 0.00 | 91 | 1009.8 |
| 20260901125015 | 52 | 99 | 0.9 | 2.6 | 0.00 | 0.00 | 0.00 | 91 | 1009.9 |
| 20260901124513 | 52 | 78 | 0.0 | 2.6 | 0.00 | 0.00 | 0.00 | 91 | 1009.8 |
| 20260901124006 | 52 | 54 | 0.0 | 1.7 | 0.00 | 0.00 | 0.00 | 91 | 1009.7 |
| 20260901123511 | 52 | 349 | 0.0 | 0.0 | 0.00 | 0.00 | 0.00 | 90 | 1009.6 |
| 20260901123028 | 52 | 349 | 0.0 | 0.0 | 0.00 | 0.00 | 0.00 | 90 | 1009.5 |
| 20260901122508 | 52 | 349 | 0.0 | 0.0 | 0.00 | 0.00 | 0.00 | 90 | 1009.5 |
| 20260901122012 | 52 | 349 | 0.0 | 0.0 | 0.00 | 0.00 | 0.00 | 90 | 1009.6 |
| 20260901121525 | 52 | 349 | 0.0 | 0.0 | 0.00 | 0.00 | 0.00 | 90 | 1009.6 |
| 20260901121012 | 52 | 349 | 0.0 | 0.0 | 0.00 | 0.00 | 0.00 | 90 | 1009.5 |
| 20260901120513 | 52 | 349 | 0.0 | 0.0 | 0.00 | 0.00 | 0.00 | 90 | 1009.5 |
| 20260901120028 | 52 | 349 | 0.0 | 0.0 | 0.00 | 0.00 | 0.00 | 90 | 1009.5 |
| 20260901115515 | 52 | 349 | 0.0 | 0.0 | 0.00 | 0.00 | 0.00 | 89 | 1009.5 |
| 20260901115013 | 52 | 349 | 0.0 | 0.0 | 0.00 | 0.00 | 0.00 | 89 | 1009.5 |
| 20260901114539 | 52 | 349 | 0.0 | 1.7 | 0.00 | 0.00 | 0.00 | 89 | 1009.5 |
| 20260901114014 | 52 | 349 | 0.0 | 1.7 | 0.00 | 0.00 | 0.00 | 89 | 1009.5 |
| 20260901113504 | 53 | 349 | 0.0 | 0.0 | 0.00 | 0.00 | 0.00 | 89 | 1009.6 |
| 20260901113019 | 53 | 349 | 0.0 | 0.0 | 0.00 | 0.00 | 0.00 | 89 | 1009.6 |
| 20260901112506 | 53 | 349 | 0.0 | 0.0 | 0.00 | 0.00 | 0.00 | 89 | 1009.7 |
| 20260901112008 | 53 | 349 | 0.0 | 0.0 | 0.00 | 0.00 | 0.00 | 89 | 1009.7 |
| 20260901111520 | 53 | 349 | 0.0 | 0.0 | 0.00 | 0.00 | 0.00 | 89 | 1009.7 |
| 20260901111010 | 53 | 349 | 0.0 | 0.0 | 0.00 | 0.00 | 0.00 | 89 | 1009.7 |
| 20260901110512 | 53 | 349 | 0.0 | 0.0 | 0.00 | 0.00 | 0.00 | 89 | 1009.7 |
| 20260901110025 | 53 | 349 | 0.0 | 0.0 | 0.00 | 0.00 | 0.00 | 88 | 1009.7 |
| 20260901105513 | 53 | 349 | 0.0 | 1.7 | 0.00 | 0.00 | 0.00 | 88 | 1009.7 |
| 20260901105012 | 53 | 349 | 0.0 | 1.7 | 0.00 | 0.00 | 0.00 | 88 | 1009.6 |
| 20260901104530 | 53 | 349 | 0.0 | 1.7 | 0.00 | 0.00 | 0.00 | 88 | 1009.7 |
| 20260901104018 | 53 | 349 | 0.0 | 1.7 | 0.00 | 0.00 | 0.00 | 88 | 1009.8 |
| 20260901103518 | 53 | 349 | 0.0 | 0.0 | 0.00 | 0.00 | 0.00 | 88 | 1009.8 |
| 20260901103032 | 53 | 349 | 0.0 | 1.7 | 0.00 | 0.00 | 0.00 | 88 | 1009.8 |
| 20260901102516 | 53 | 349 | 0.0 | 1.7 | 0.00 | 0.00 | 0.00 | 88 | 1009.7 |
| 20260901102008 | 54 | 349 | 0.0 | 1.7 | 0.00 | 0.00 | 0.00 | 88 | 1009.7 |
| 20260901101517 | 54 | 349 | 0.0 | 1.7 | 0.00 | 0.00 | 0.00 | 88 | 1009.7 |
| 20260901101007 | 54 | 349 | 0.0 | 1.7 | 0.00 | 0.00 | 0.00 | 87 | 1009.7 |
| 20260901100512 | 54 | 349 | 0.0 | 1.7 | 0.00 | 0.00 | 0.00 | 87 | 1009.7 |
| 20260901100024 | 54 | 349 | 0.0 | 0.0 | 0.00 | 0.00 | 0.00 | 87 | 1009.7 |
| 20260901095512 | 54 | 349 | 0.0 | 1.7 | 0.00 | 0.00 | 0.00 | 87 | 1009.6 |
| 20260901095015 | 54 | 349 | 0.0 | 1.7 | 0.00 | 0.00 | 0.00 | 87 | 1009.6 |
| 20260901094533 | 54 | 349 | 0.0 | 1.7 | 0.00 | 0.00 | 0.00 | 87 | 1009.6 |
| 20260901094016 | 54 | 349 | 0.0 | 0.0 | 0.00 | 0.00 | 0.00 | 86 | 1009.6 |
| 20260901093514 | 54 | 349 | 0.0 | 0.0 | 0.00 | 0.00 | 0.00 | 86 | 1009.6 |